sat.trackr.live / text

‹ back to catalog

UK-DMC 2

NORAD 35683 · 2009-041C

PAYLOAD ACTIVE UNKNOWN

§ Identity

Operator
Country
UK
Launch date
2009-07-29
Launch site
TYMSC
Launch vehicle
Mass (kg)
RCS (m²)
0.41

Purposes: earth_obs

External: N2YO · Heavens-Above · Gunter

§ Orbital elements

Epoch: 2026-05-25T04:14:31.522272Z

Period
97.56 min
Inclination
97.8802°
Eccentricity
0.0001522
Mean motion
14.75982754 rev/d
Perigee alt
641.0 km
Apogee alt
643.1 km
Semi-major
7,020.2 km
B*
3.2869e-5
RAAN
280.7105°
Arg perigee
77.4845°
Mean anomaly
282.6535°
Rev number
90,317

§ Raw data

UK-DMC 21 35683U 09041C   26145.17675373  .00000177  00000+0  32869-4 0  99922 35683  97.8802 280.7105 0001522  77.4845 282.6535 14.75982754903172

JSON: /api/v1/satellites/35683 · /tle

For live sub-satellite position, see the globe view (requires WebGL).

§ Visibility from observer

Set your observer location to see the next 7 days of passes ≥ 10°. The values pass through the URL so the page stays shareable.

No JS? Fill the form by hand. The geolocation button needs JavaScript.

§ Radio — SatNOGS DB

ModeDescriptionDownlinkUplink
BPSK Telemetry 2.233 GHz

1 transmitter · refreshed weekly from db.satnogs.org